When you browse on this site, cookies collect data to enhance your experience and personalize the content and advertising you see.
Visit our Privacy Policy to learn more. By continuing to use the site, you agree to this use of cookies and data.
  • In Hungary
  • List of Countries
  • For 7 days
  • Water Temperature
  • Satellite Maps
  • Weather Map
  • News
  • Weather Widgets
  • user-avatar
    Login

    Hourly Weather Sosnovskiy

    Today, 21 November, Wednesday

    Time Temperature Precipitation Wind Pressure Humidity
    00:00 -4°C° 0 mm 2 mps 754 mmHg 90%
    01:00 -4°C° 0 mm 2 mps 754 mmHg 90%
    02:00 -5°C° 0 mm 2 mps 754 mmHg 91%
    03:00 -5°C° 0 mm 2 mps 753 mmHg 91%
    04:00 -5°C° 0 mm 2 mps 753 mmHg 91%
    05:00 -6°C° 0 mm 3 mps 752 mmHg 91%
    06:00 -6°C° 0 mm 3 mps 752 mmHg 91%
    07:00 -5°C° 0.2 mm 4 mps 751 mmHg 89%
    08:00 -5°C° 0.2 mm 4 mps 751 mmHg 88%
    09:00 -5°C° 0.2 mm 5 mps 750 mmHg 86%
    10:00 -5°C° 0.3 mm 5 mps 750 mmHg 86%
    11:00 -5°C° 0.3 mm 5 mps 749 mmHg 86%
    12:00 -5°C° 0.3 mm 6 mps 749 mmHg 85%
    13:00 -5°C° 0.1 mm 5 mps 748 mmHg 84%
    14:00 -5°C° 0.1 mm 5 mps 748 mmHg 82%
    15:00 -5°C° 0.1 mm 5 mps 748 mmHg 80%
    16:00 -5°C° 0 mm 5 mps 748 mmHg 82%
    17:00 -5°C° 0 mm 5 mps 748 mmHg 84%
    18:00 -5°C° 0 mm 5 mps 748 mmHg 86%
    19:00 -6°C° 0 mm 5 mps 748 mmHg 84%
    20:00 -6°C° 0 mm 5 mps 748 mmHg 82%
    21:00 -6°C° 0 mm 5 mps 748 mmHg 80%
    22:00 -7°C° 0 mm 5 mps 748 mmHg 79%
    23:00 -7°C° 0 mm 5 mps 748 mmHg 78%

    Tomorrow, 22 November, Thursday

    Time Temperature Precipitation Wind Pressure Humidity
    00:00 -8°C° 0 mm 5 mps 748 mmHg 77%
    01:00 -8°C° 0 mm 4 mps 748 mmHg 79%
    02:00 -8°C° 0 mm 4 mps 748 mmHg 80%
    03:00 -9°C° 0 mm 4 mps 749 mmHg 81%
    04:00 -9°C° 0 mm 4 mps 749 mmHg 82%
    05:00 -9°C° 0 mm 4 mps 749 mmHg 84%
    06:00 -9°C° 0 mm 4 mps 749 mmHg 85%
    07:00 -9°C° 0 mm 4 mps 749 mmHg 85%
    08:00 -8°C° 0 mm 4 mps 749 mmHg 84%
    09:00 -8°C° 0 mm 4 mps 749 mmHg 83%
    10:00 -7°C° 0 mm 4 mps 748 mmHg 81%
    11:00 -7°C° 0 mm 5 mps 748 mmHg 78%
    12:00 -6°C° 0 mm 5 mps 747 mmHg 76%
    13:00 -6°C° 0 mm 5 mps 747 mmHg 78%
    14:00 -6°C° 0 mm 5 mps 747 mmHg 79%
    15:00 -6°C° 0 mm 5 mps 746 mmHg 81%
    16:00 -7°C° 0 mm 5 mps 746 mmHg 82%
    17:00 -7°C° 0 mm 5 mps 746 mmHg 83%
    18:00 -7°C° 0 mm 4 mps 745 mmHg 84%
    19:00 -7°C° 0 mm 5 mps 745 mmHg 84%
    20:00 -7°C° 0 mm 5 mps 744 mmHg 84%
    21:00 -8°C° 0 mm 5 mps 744 mmHg 83%
    22:00 -8°C° 0 mm 5 mps 743 mmHg 84%
    23:00 -9°C° 0 mm 6 mps 742 mmHg 85%

    Day after tomorrow, 23 November, Friday

    Time Temperature Precipitation Wind Pressure Humidity
    00:00 -9°C° 0 mm 6 mps 741 mmHg 85%
    01:00 -8°C° 0.3 mm 7 mps 740 mmHg 87%
    02:00 -8°C° 0.3 mm 7 mps 739 mmHg 88%
    03:00 -8°C° 0.3 mm 8 mps 738 mmHg 89%
    04:00 -7°C° 0.5 mm 8 mps 738 mmHg 87%
    05:00 -7°C° 0.5 mm 8 mps 737 mmHg 85%
    06:00 -7°C° 0.5 mm 8 mps 737 mmHg 82%
    07:00 -9°C° 0.1 mm 9 mps 737 mmHg 81%
    08:00 -10°C° 0.1 mm 9 mps 738 mmHg 80%
    09:00 -10°C° 0.1 mm 10 mps 738 mmHg 79%
    10:00 -12°C° 0.3 mm 11 mps 739 mmHg 78%
    11:00 -12°C° 0.3 mm 11 mps 740 mmHg 78%
    12:00 -12°C° 0.3 mm 12 mps 740 mmHg 78%
    13:00 -12°C° 0.2 mm 11 mps 742 mmHg 77%
    14:00 -13°C° 0.2 mm 11 mps 743 mmHg 76%
    15:00 -13°C° 0.2 mm 11 mps 744 mmHg 75%
    16:00 -13°C° 0.1 mm 10 mps 745 mmHg 75%
    17:00 -13°C° 0.1 mm 10 mps 746 mmHg 75%
    18:00 -13°C° 0.1 mm 10 mps 747 mmHg 76%
    19:00 -14°C° 0 mm 9 mps 748 mmHg 76%
    20:00 -14°C° 0 mm 9 mps 750 mmHg 76%
    21:00 -13°C° 0 mm 8 mps 751 mmHg 77%
    22:00 -15°C° 0 mm 8 mps 752 mmHg 79%
    23:00 -14°C° 0 mm 7 mps 753 mmHg 82%

    24 November, Saturday

    Time Temperature Precipitation Wind Pressure Humidity
    00:00 -14°C° 0 mm 6 mps 754 mmHg 84%
    01:00 -13°C° 0 mm 5 mps 754 mmHg 85%
    02:00 -13°C° 0 mm 5 mps 755 mmHg 86%
    03:00 -12°C° 0 mm 4 mps 756 mmHg 88%
    04:00 -12°C° 0 mm 4 mps 756 mmHg 87%
    05:00 -12°C° 0 mm 4 mps 756 mmHg 86%
    06:00 -12°C° 0 mm 4 mps 757 mmHg 85%
    07:00 -12°C° 0 mm 5 mps 757 mmHg 83%
    08:00 -12°C° 0 mm 5 mps 757 mmHg 80%
    09:00 -12°C° 0 mm 5 mps 757 mmHg 78%
    10:00 -11°C° 0 mm 5 mps 757 mmHg 77%
    11:00 -10°C° 0 mm 5 mps 757 mmHg 76%
    12:00 -9°C° 0 mm 6 mps 757 mmHg 75%
    13:00 -9°C° 0 mm 6 mps 757 mmHg 75%
    14:00 -9°C° 0 mm 6 mps 757 mmHg 76%
    15:00 -9°C° 0 mm 6 mps 757 mmHg 77%
    16:00 -9°C° 0 mm 6 mps 757 mmHg 77%
    17:00 -9°C° 0 mm 6 mps 757 mmHg 77%
    18:00 -9°C° 0 mm 7 mps 757 mmHg 77%
    19:00 -9°C° 0 mm 7 mps 757 mmHg 76%
    20:00 -9°C° 0 mm 7 mps 756 mmHg 76%
    21:00 -9°C° 0 mm 6 mps 756 mmHg 76%
    22:00 -9°C° 0 mm 6 mps 756 mmHg 77%
    23:00 -9°C° 0 mm 6 mps 756 mmHg 77%

    25 November, Sunday

    Time Temperature Precipitation Wind Pressure Humidity
    00:00 -9°C° 0 mm 6 mps 756 mmHg 78%
    01:00 -9°C° 0 mm 6 mps 756 mmHg 79%
    02:00 -9°C° 0 mm 6 mps 756 mmHg 79%
    03:00 -9°C° 0 mm 7 mps 755 mmHg 80%
    04:00 -9°C° 0 mm 7 mps 755 mmHg 80%
    05:00 -9°C° 0 mm 6 mps 755 mmHg 80%
    06:00 -9°C° 0 mm 6 mps 755 mmHg 81%
    07:00 -9°C° 0 mm 7 mps 755 mmHg 80%
    08:00 -9°C° 0 mm 7 mps 755 mmHg 80%
    09:00 -9°C° 0 mm 7 mps 755 mmHg 80%
    10:00 -8°C° 0 mm 7 mps 754 mmHg 79%
    11:00 -7°C° 0 mm 7 mps 754 mmHg 78%
    12:00 -7°C° 0 mm 7 mps 754 mmHg 76%
    13:00 -7°C° 0 mm 7 mps 754 mmHg 77%
    14:00 -6°C° 0 mm 6 mps 754 mmHg 77%
    15:00 -6°C° 0 mm 6 mps 753 mmHg 77%
    16:00 -6°C° 0.1 mm 6 mps 753 mmHg 79%
    17:00 -6°C° 0.1 mm 5 mps 754 mmHg 80%
    18:00 -6°C° 0.1 mm 5 mps 754 mmHg 82%
    19:00 -6°C° 0.1 mm 5 mps 754 mmHg 84%
    20:00 -5°C° 0.1 mm 4 mps 754 mmHg 86%
    21:00 -5°C° 0.1 mm 4 mps 754 mmHg 88%
    22:00 -5°C° 0.1 mm 3 mps 754 mmHg 89%
    23:00 -5°C° 0.1 mm 3 mps 754 mmHg 91%

    26 November, Monday

    Time Temperature Precipitation Wind Pressure Humidity
    00:00 -5°C° 0.1 mm 3 mps 754 mmHg 92%
    01:00 -5°C° 0.1 mm 2 mps 754 mmHg 93%
    02:00 -5°C° 0.1 mm 2 mps 754 mmHg 93%
    03:00 -5°C° 0.1 mm 2 mps 754 mmHg 94%
    04:00 -5°C° 0 mm 2 mps 753 mmHg 94%
    05:00 -5°C° 0 mm 2 mps 753 mmHg 94%
    06:00 -5°C° 0 mm 2 mps 753 mmHg 93%
    07:00 -5°C° 0 mm 2 mps 753 mmHg 93%
    08:00 -5°C° 0 mm 3 mps 753 mmHg 92%
    09:00 -5°C° 0 mm 3 mps 753 mmHg 91%
    10:00 -5°C° 0.1 mm 3 mps 753 mmHg 90%
    11:00 -4°C° 0.1 mm 4 mps 752 mmHg 89%
    12:00 -3°C° 0.1 mm 4 mps 752 mmHg 89%
    13:00 -3°C° 0.1 mm 4 mps 751 mmHg 89%
    14:00 -3°C° 0.1 mm 4 mps 751 mmHg 90%
    15:00 -2°C° 0.1 mm 4 mps 751 mmHg 91%
    16:00 -2°C° 0.2 mm 5 mps 750 mmHg 91%
    17:00 -2°C° 0.2 mm 5 mps 750 mmHg 91%
    18:00 -3°C° 0.2 mm 6 mps 750 mmHg 91%
    19:00 -3°C° 0.3 mm 6 mps 749 mmHg 91%
    20:00 -3°C° 0.3 mm 6 mps 749 mmHg 91%
    21:00 -3°C° 0.3 mm 7 mps 748 mmHg 91%
    22:00 -3°C° 0.3 mm 6 mps 748 mmHg 91%
    23:00 -3°C° 0.3 mm 6 mps 748 mmHg 91%
    Show more